Change the Weather History Date:

Monday, March 31, 2014

  Actual Average Record
Temperature  
Mean Temperature 57 °F 60 °F  
Max Temperature 78 °F 73 °F 87 °F (1968)
Min Temperature 36 °F 48 °F 26 °F (1964)
Degree Days  
Heating Degree Days 8 6  
Month to date heating degree days 386 277  
Since 1 July heating degree days 2250 2209  
Cooling Degree Days 0 1  
Month to date cooling degree days 2 17  
Year to date cooling degree days 8 20  
Growing Degree Days 7 (Base 50)    
Moisture  
Dew Point 27 °F    
Average Humidity 43    
Maximum Humidity 85    
Minimum Humidity 9    
Precipitation  
Precipitation 0.00 in 0.11 in 2.50 in (1970)
Month to date precipitation 2.87 3.98  
Year to date precipitation 8.79 11.55  
Sea Level Pressure  
Sea Level Pressure 30.10 in    
Wind  
Wind Speed 2 mph (North)    
Max Wind Speed 15 mph    
Max Gust Speed 20 mph    
Visibility 10 miles    
Events      
T = Trace of Precipitation, MM = Missing Value Source: NWS Daily Summary

Daily Weather History Graph

Daily Weather History Graph

Search for Another Location

Airport or City:

Trip Planner

Search our weather history database for the weather conditions in past years. The results will help you decide how hot, cold, wet, or windy it might be!

Date:

Astronomy

Mar. 31, 2014 Rise Set
Actual Time 7:12 AM EDT 7:43 PM EDT
Civil Twilight 6:47 AM EDT 8:08 PM EDT
Nautical Twilight 6:18 AM EDT 8:37 PM EDT
Astronomical Twilight 5:48 AM EDT 9:07 PM EDT
Moon 7:37 AM EDT (3/31) 8:55 PM EDT (3/31)
Length of Visible Light 13h 20m
Length of Day
12h 30m
New Moon, 1% of the Moon is Illuminated
Mar 31
New Moon
Apr 7
First Quarter
Apr 15
Full
Apr 22
Last Quarter
Apr 29
New

Hourly Weather History & Observations

Time (EDT) Temp. Windchill Dew Point Humidity Pressure Visibility Wind Dir Wind Speed Gust Speed Precip Events Conditions
12:53 AM 46.0 °F 44.8 °F 33.1 °F 61% 30.06 in 10.0 mi NW 3.5 mph - N/A   Clear
1:53 AM 45.0 °F - 33.1 °F 63% 30.07 in 10.0 mi Calm Calm - N/A   Clear
2:53 AM 42.1 °F - 34.0 °F 73% 30.07 in 10.0 mi Calm Calm - N/A   Clear
3:53 AM 39.9 °F - 36.0 °F 86% 30.06 in 10.0 mi Calm Calm - N/A   Clear
4:53 AM 39.0 °F - 34.0 °F 82% 30.07 in 10.0 mi Calm Calm - N/A   Clear
5:53 AM 37.0 °F - 33.1 °F 86% 30.08 in 10.0 mi Calm Calm - N/A   Clear
6:53 AM 37.9 °F - 33.1 °F 83% 30.09 in 10.0 mi Calm Calm - N/A   Clear
7:53 AM 41.0 °F 37.1 °F 32.0 °F 70% 30.12 in 10.0 mi WNW 5.8 mph - N/A   Clear
8:53 AM 48.9 °F - 32.0 °F 52% 30.14 in 10.0 mi NNW 3.5 mph - N/A   Clear
9:53 AM 57.0 °F - 26.1 °F 30% 30.15 in 10.0 mi NNE 10.4 mph - N/A   Clear
10:53 AM 63.0 °F - 18.0 °F 18% 30.15 in 10.0 mi NNE 10.4 mph - N/A   Clear
11:53 AM 66.0 °F - 18.0 °F 16% 30.15 in 10.0 mi Variable 6.9 mph - N/A   Clear
12:53 PM 66.9 °F - 19.9 °F 17% 30.14 in 10.0 mi Calm Calm - N/A   Clear
1:53 PM 70.0 °F - 19.9 °F 15% 30.12 in 10.0 mi Variable 3.5 mph - N/A   Clear
2:53 PM 73.9 °F - 18.0 °F 12% 30.10 in 10.0 mi North 5.8 mph - N/A   Clear
3:53 PM 75.9 °F - 18.0 °F 11% 30.08 in 10.0 mi Variable 3.5 mph - N/A   Clear
4:53 PM 75.9 °F - 16.0 °F 10% 30.07 in 10.0 mi Calm Calm - N/A   Clear
5:53 PM 77.0 °F - 15.1 °F 10% 30.07 in 10.0 mi North - - N/A   Clear
6:53 PM 75.9 °F - 12.9 °F 9% 30.07 in 10.0 mi Calm Calm - N/A   Clear
7:53 PM 64.9 °F - 30.0 °F 27% 30.07 in 10.0 mi Calm Calm - N/A   Clear
8:53 PM 59.0 °F - 32.0 °F 36% 30.09 in 9.0 mi Calm Calm - N/A   Clear
9:53 PM 55.0 °F - 33.1 °F 43% 30.11 in 10.0 mi Calm Calm - N/A   Clear
10:53 PM 52.0 °F - 35.1 °F 53% 30.11 in 10.0 mi Calm Calm - N/A   Clear
11:53 PM 50.0 °F - 36.0 °F 59% 30.12 in 10.0 mi Calm Calm - N/A   Clear